Weather in Revyakino

Russia / Tula Oblast     54°22′00″N   37°39′22″E
temp.,
°C
wind,
m/s
gust,
m/s
humid.,
%
clouds,
%
prec.,
mm/h
press.,
hPa
HPBL,
m
15 june, tue
tue1500:00+17n11845 0.0 101511
03:00+16nw11862 0.0 101511
06:00+18nnw11852 0.0 101554
09:00+22nnw11713 0.8 1014280
12:00+25n21576 1.1 10131347
15:00+25nw225657 1.6 10121571
18:00+24nw22667 1.2 10101109
21:00+19nnw118020 1.8 101011
16 june, wed
wed1600:00+17nw228859 0.9 101011
03:00+16nw239477 0.9 101053
06:00+17nnw37932 0.0 1011215
09:00+21nnw46720 0.0 1012540
12:00+23nnw566274 0.0 10131347
15:00+23nne465939 0.0 10131616
18:00+22n477116 0.1 1014871
21:00+17n39780 0.1 1017187
17 june, thu
thu1700:00+14nne410734 0.0 1019213
03:00+12nne37735 0.0 1021133
06:00+13nne37780 0.0 1022165
09:00+18nne47615 0.0 1023488
12:00+20ne55520 0.0 10241135
15:00+21ne45520 0.0 10251288
18:00+20ne35610 0.0 1025897
21:00+15ne22695 0.0 102616
18 june, fri
fri1800:00+14ene22775 0.0 102726
03:00+13ene227747 0.0 102715
06:00+15ene12750 0.0 102871
09:00+19e23620 0.0 1028491
12:00+22ese33540 0.0 10281284
15:00+23ese33534 0.0 10281471
18:00+22ese22632 0.0 10281205
21:00+17sse227768 0.0 102819
19 june, sat
sat1900:00+15ssw228314 0.0 102920
03:00+14ssw12865 0.0 102913
06:00+16ssw12825 0.0 103077
09:00+21s22650 0.0 1029568
12:00+23ssw23550 0.0 10281389
15:00+25ssw22531 0.0 10271538
18:00+24ssw33631 0.0 1026712
21:00+18sw22780 0.0 102611